When you browse on this site, cookies collect data to enhance your experience and personalize the content and advertising you see.
Visit our Privacy Policy to learn more. By continuing to use the site, you agree to this use of cookies and data.
  • Em Portugal
  • Lista de países
  • Para 7 dias
  • Temperatura da água
  • Mapas de satélite
  • Mapa do tempo
  • Widgets de tempo
  • user-avatar
    Iniciar Sessão

    Previsão horária em Zenica

    Hoje, 20 Novembro, Terça-feira

    Tempo Temperatura Precipitação Vento Pressão Humidade
    00:00 -2°C° 2.4 mm 2 m/s 670 mmHg 92%
    01:00 -1°C° 0 mm 2 m/s 670 mmHg 93%
    02:00 -1°C° 2.6 mm 2 m/s 670 mmHg 93%
    03:00 -1°C° 2.6 mm 2 m/s 669 mmHg 94%
    04:00 +1°C° 2.6 mm 2 m/s 669 mmHg 94%
    05:00 +1°C° 3.3 mm 2 m/s 669 mmHg 95%
    06:00 +1°C° 3.3 mm 2 m/s 669 mmHg 96%
    07:00 +2°C° 3.3 mm 2 m/s 668 mmHg 96%
    08:00 +3°C° 2.8 mm 1 m/s 669 mmHg 95%
    09:00 +4°C° 2.8 mm 1 m/s 669 mmHg 94%
    10:00 +5°C° 2.8 mm 1 m/s 669 mmHg 92%
    11:00 +5°C° 0.9 mm 1 m/s 669 mmHg 92%
    12:00 +5°C° 0.9 mm 2 m/s 669 mmHg 92%
    13:00 +6°C° 0.9 mm 2 m/s 670 mmHg 91%
    14:00 +6°C° 0.4 mm 1 m/s 670 mmHg 93%
    15:00 +6°C° 0.4 mm 1 m/s 670 mmHg 94%
    16:00 +5°C° 0.4 mm 1 m/s 670 mmHg 96%
    17:00 +5°C° 0 mm 1 m/s 670 mmHg 96%
    18:00 +5°C° 0 mm 1 m/s 670 mmHg 97%
    19:00 +4°C° 0 mm 1 m/s 670 mmHg 97%
    20:00 +4°C° 0 mm 1 m/s 671 mmHg 97%
    21:00 +4°C° 0 mm 1 m/s 671 mmHg 97%
    22:00 +4°C° 0 mm 1 m/s 671 mmHg 97%
    23:00 +4°C° 0 mm 1 m/s 671 mmHg 97%

    Amanhã, 21 Novembro, Quarta-feira

    Tempo Temperatura Precipitação Vento Pressão Humidade
    00:00 +4°C° 0 mm 1 m/s 671 mmHg 97%
    01:00 +3°C° 0 mm 1 m/s 672 mmHg 97%
    02:00 +3°C° 0 mm 1 m/s 672 mmHg 96%
    03:00 +2°C° 0 mm 0 m/s 672 mmHg 96%
    04:00 +2°C° 0 mm 0 m/s 672 mmHg 96%
    05:00 +2°C° 0 mm 0 m/s 672 mmHg 96%
    06:00 +3°C° 0 mm 1 m/s 672 mmHg 95%
    07:00 +3°C° 0 mm 1 m/s 672 mmHg 95%
    08:00 +4°C° 0 mm 1 m/s 673 mmHg 94%
    09:00 +5°C° 0 mm 1 m/s 674 mmHg 92%
    10:00 +6°C° 0 mm 1 m/s 674 mmHg 91%
    11:00 +7°C° 0 mm 1 m/s 674 mmHg 89%
    12:00 +7°C° 0 mm 1 m/s 675 mmHg 88%
    13:00 +8°C° 0 mm 1 m/s 675 mmHg 86%
    14:00 +7°C° 0 mm 1 m/s 675 mmHg 89%
    15:00 +6°C° 0 mm 1 m/s 675 mmHg 91%
    16:00 +6°C° 0 mm 1 m/s 675 mmHg 94%
    17:00 +5°C° 0 mm 1 m/s 675 mmHg 94%
    18:00 +3°C° 0 mm 0 m/s 675 mmHg 95%
    19:00 +3°C° 0 mm 0 m/s 675 mmHg 96%
    20:00 +3°C° 0 mm 0 m/s 676 mmHg 96%
    21:00 +3°C° 0 mm 0 m/s 676 mmHg 95%
    22:00 +3°C° 0 mm 0 m/s 676 mmHg 95%
    23:00 +2°C° 0 mm 0 m/s 676 mmHg 95%

    Depois de amanhã, 22 Novembro, Quinta-feira

    Tempo Temperatura Precipitação Vento Pressão Humidade
    00:00 +2°C° 0 mm 0 m/s 676 mmHg 95%
    01:00 +2°C° 0 mm 0 m/s 676 mmHg 95%
    02:00 +2°C° 0 mm 0 m/s 676 mmHg 95%
    03:00 +2°C° 0 mm 0 m/s 676 mmHg 95%
    04:00 +2°C° 0 mm 0 m/s 676 mmHg 95%
    05:00 +3°C° 0.1 mm 0 m/s 677 mmHg 94%
    06:00 +3°C° 0.1 mm 0 m/s 677 mmHg 94%
    07:00 +3°C° 0.1 mm 0 m/s 677 mmHg 94%
    08:00 +4°C° 0 mm 0 m/s 677 mmHg 91%
    09:00 +5°C° 0 mm 0 m/s 678 mmHg 88%
    10:00 +7°C° 0 mm 0 m/s 678 mmHg 85%
    11:00 +7°C° 0 mm 0 m/s 678 mmHg 84%
    12:00 +9°C° 0 mm 1 m/s 679 mmHg 82%
    13:00 +9°C° 0 mm 1 m/s 679 mmHg 81%
    14:00 +8°C° 0.1 mm 1 m/s 679 mmHg 84%
    15:00 +8°C° 0.1 mm 1 m/s 679 mmHg 88%
    16:00 +7°C° 0.1 mm 1 m/s 679 mmHg 91%
    17:00 +6°C° 0 mm 1 m/s 679 mmHg 93%
    18:00 +6°C° 0 mm 1 m/s 679 mmHg 94%
    19:00 +4°C° 0 mm 0 m/s 679 mmHg 95%
    20:00 +4°C° 0 mm 0 m/s 679 mmHg 95%
    21:00 +4°C° 0 mm 0 m/s 679 mmHg 95%
    22:00 +3°C° 0 mm 0 m/s 680 mmHg 95%
    23:00 +3°C° 0 mm 0 m/s 680 mmHg 95%

    23 Novembro, Sexta-feira

    Tempo Temperatura Precipitação Vento Pressão Humidade
    00:00 +3°C° 0 mm 0 m/s 680 mmHg 95%
    01:00 +2°C° 0 mm 0 m/s 680 mmHg 95%
    02:00 +2°C° 0 mm 0 m/s 680 mmHg 94%
    03:00 +2°C° 0 mm 0 m/s 680 mmHg 94%
    04:00 +2°C° 0 mm 0 m/s 680 mmHg 93%
    05:00 +2°C° 0 mm 0 m/s 680 mmHg 93%
    06:00 +2°C° 0 mm 0 m/s 680 mmHg 92%
    07:00 +2°C° 0 mm 0 m/s 681 mmHg 92%
    08:00 +3°C° 0 mm 0 m/s 681 mmHg 88%
    09:00 +5°C° 0 mm 0 m/s 682 mmHg 84%
    10:00 +6°C° 0 mm 0 m/s 683 mmHg 80%
    11:00 +7°C° 0 mm 0 m/s 683 mmHg 77%
    12:00 +8°C° 0 mm 0 m/s 682 mmHg 74%
    13:00 +9°C° 0 mm 0 m/s 682 mmHg 71%
    14:00 +8°C° 0 mm 0 m/s 682 mmHg 75%
    15:00 +6°C° 0 mm 0 m/s 682 mmHg 79%
    16:00 +5°C° 0 mm 0 m/s 681 mmHg 84%
    17:00 +5°C° 0 mm 0 m/s 681 mmHg 86%
    18:00 +4°C° 0 mm 0 m/s 681 mmHg 87%
    19:00 +4°C° 0 mm 1 m/s 681 mmHg 89%
    20:00 +4°C° 0 mm 1 m/s 681 mmHg 89%
    21:00 +4°C° 0 mm 1 m/s 681 mmHg 89%
    22:00 +4°C° 0 mm 1 m/s 681 mmHg 88%
    23:00 +4°C° 0 mm 1 m/s 681 mmHg 88%

    24 Novembro, Sábado

    Tempo Temperatura Precipitação Vento Pressão Humidade
    00:00 +4°C° 0 mm 1 m/s 681 mmHg 87%
    01:00 +4°C° 0 mm 1 m/s 681 mmHg 86%
    02:00 +4°C° 0 mm 1 m/s 680 mmHg 86%
    03:00 +3°C° 0 mm 2 m/s 680 mmHg 85%
    04:00 +3°C° 0 mm 2 m/s 680 mmHg 85%
    05:00 +3°C° 0 mm 2 m/s 679 mmHg 84%
    06:00 +3°C° 0 mm 2 m/s 679 mmHg 84%
    07:00 +3°C° 0 mm 2 m/s 679 mmHg 83%
    08:00 +5°C° 0 mm 2 m/s 679 mmHg 80%
    09:00 +6°C° 0 mm 2 m/s 679 mmHg 76%
    10:00 +7°C° 0 mm 3 m/s 679 mmHg 73%
    11:00 +8°C° 0.1 mm 3 m/s 679 mmHg 74%
    12:00 +8°C° 0.1 mm 3 m/s 679 mmHg 75%
    13:00 +8°C° 0.1 mm 3 m/s 679 mmHg 76%
    14:00 +8°C° 0.1 mm 3 m/s 678 mmHg 79%
    15:00 +7°C° 0.1 mm 3 m/s 678 mmHg 82%
    16:00 +5°C° 0.1 mm 3 m/s 678 mmHg 84%
    17:00 +5°C° 0 mm 3 m/s 677 mmHg 85%
    18:00 +5°C° 0 mm 3 m/s 677 mmHg 86%
    19:00 +4°C° 0 mm 3 m/s 677 mmHg 87%
    20:00 +4°C° 0 mm 3 m/s 677 mmHg 87%
    21:00 +4°C° 0 mm 3 m/s 677 mmHg 86%
    22:00 +4°C° 0 mm 3 m/s 677 mmHg 85%
    23:00 +5°C° 0.1 mm 3 m/s 677 mmHg 86%

    25 Novembro, Domingo

    Tempo Temperatura Precipitação Vento Pressão Humidade
    00:00 +5°C° 0.1 mm 3 m/s 677 mmHg 87%
    01:00 +5°C° 0.1 mm 3 m/s 676 mmHg 88%
    02:00 +5°C° 0.1 mm 3 m/s 676 mmHg 89%
    03:00 +5°C° 0.1 mm 3 m/s 676 mmHg 90%
    04:00 +5°C° 0.1 mm 3 m/s 676 mmHg 92%
    05:00 +6°C° 0.1 mm 2 m/s 676 mmHg 92%
    06:00 +6°C° 0.1 mm 2 m/s 675 mmHg 93%
    07:00 +6°C° 0.1 mm 2 m/s 675 mmHg 93%
    08:00 +7°C° 0.4 mm 2 m/s 676 mmHg 91%
    09:00 +8°C° 0.4 mm 2 m/s 676 mmHg 89%
    10:00 +9°C° 0.4 mm 2 m/s 676 mmHg 86%
    11:00 +9°C° 1.1 mm 2 m/s 676 mmHg 87%
    12:00 +8°C° 1.1 mm 2 m/s 675 mmHg 88%
    13:00 +9°C° 1.1 mm 1 m/s 675 mmHg 88%
    14:00 +9°C° 0.6 mm 1 m/s 674 mmHg 90%
    15:00 +9°C° 0.6 mm 1 m/s 674 mmHg 92%
    16:00 +8°C° 0.6 mm 1 m/s 674 mmHg 94%
    17:00 +8°C° 0.2 mm 1 m/s 674 mmHg 94%
    18:00 +7°C° 0.2 mm 1 m/s 674 mmHg 94%
    19:00 +7°C° 0.2 mm 1 m/s 674 mmHg 95%
    20:00 +7°C° 0.1 mm 1 m/s 673 mmHg 95%
    21:00 +7°C° 0.1 mm 1 m/s 673 mmHg 95%
    22:00 +7°C° 0.1 mm 1 m/s 673 mmHg 95%
    23:00 +7°C° 0.3 mm 1 m/s 673 mmHg 95%
    Mostrar mais